Chillicothe, MO

5:08 PM CST on November 13, 2019 (GMT -0600)
Chillicothe

Weather History for KCDJ - September, 2019

Change the Weather History Date:

Sunday, September 15, 2019

  Actual Average (KIRK) Record (KIRK)
Temperature  
Mean Temperature 82 °F -  
Max Temperature 90 °F 74 °F 100 °F (1939)
Min Temperature 73 °F 54 °F 34 °F (2007)
Cooling Degree Days 16    
Growing Degree Days 32 (Base 50)    
Moisture  
Dew Point 71 °F    
Average Humidity 76    
Maximum Humidity 97    
Minimum Humidity 54    
Precipitation  
Precipitation 0.01 in - - ()
Sea Level Pressure  
Sea Level Pressure 29.99 in    
Wind  
Wind Speed 6 mph (SSW)    
Max Wind Speed 10 mph    
Max Gust Speed 20 mph    
Averages and records for this station are not official NWS values.
T = Trace of Precipitation, MM = Missing Value Source: NWS Daily Summary

Daily Weather History Graph

Daily Weather History Graph

Search for Another Location

Airport or City:

Astronomy

Sep. 15, 2019 Rise Set
Actual Time 6:55 AM CDT 7:23 PM CDT
Civil Twilight 6:28 AM CDT 7:50 PM CDT
Nautical Twilight 5:56 AM CDT 8:22 PM CDT
Astronomical Twilight 5:23 AM CDT 8:54 PM CDT
Moon 8:31 PM CDT (9/15) 8:05 AM CDT (9/15)
Length of Visible Light 13h 22m
Length of Day
12h 28m
Full, 98% of the Moon is Illuminated
Sep 15
Full
Sep 21
Last Quarter
Sep 28
New
Oct 5
First Quarter
Oct 13
Full

Hourly Weather History & Observations

Time (CDT) Temp. Heat Index Dew Point Humidity Pressure Visibility Wind Dir Wind Speed Gust Speed Precip Events Conditions
12:52 AM 75.9 °F - 70.0 °F 82% 30.02 in - South 5.8 mph - N/A   Unknown
1:52 AM 75.0 °F - 69.1 °F 82% 30.02 in - South 8.1 mph - N/A   Unknown
2:52 AM 75.0 °F - 69.1 °F 82% 30.00 in - South 9.2 mph - N/A   Unknown
3:52 AM 75.0 °F - 69.1 °F 82% 30.00 in - SSW 5.8 mph - N/A   Unknown
4:52 AM 73.0 °F - 70.0 °F 90% 30.01 in - SSW 3.5 mph - N/A   Unknown
5:52 AM 73.9 °F - 70.0 °F 87% 29.99 in - SSW 8.1 mph - 0.01 in   Unknown
6:52 AM 73.9 °F - 69.1 °F 85% 29.99 in - South 6.9 mph - N/A   Unknown
7:52 AM 73.0 °F - 68.0 °F 84% 30.00 in - SSW 5.8 mph - N/A   Unknown
9:52 AM 75.9 °F - 70.0 °F 82% 30.02 in - SSW 5.8 mph - N/A   Unknown
10:52 AM 82.0 °F 86.3 °F 71.1 °F 69% 30.02 in - Variable 6.9 mph - N/A   Unknown
11:52 AM 84.9 °F 90.1 °F 71.1 °F 63% 30.01 in - Variable 6.9 mph - N/A   Unknown
12:52 PM 87.1 °F 92.0 °F 70.0 °F 57% 29.99 in - SW 9.2 mph 19.6 mph N/A   Unknown
1:52 PM 88.0 °F 92.9 °F 70.0 °F 55% 29.98 in - SW 10.4 mph 17.3 mph N/A   Unknown
2:52 PM 89.1 °F 95.0 °F 71.1 °F 55% 29.96 in - SSW 4.6 mph - N/A   Unknown
3:52 PM 90.0 °F 96.4 °F 71.1 °F 54% 29.95 in - WSW 4.6 mph - N/A   Unknown
4:52 PM 89.1 °F 95.0 °F 71.1 °F 55% 29.96 in - North - - N/A   Unknown
5:52 PM 88.0 °F 95.6 °F 73.0 °F 61% 29.96 in - SSW 3.5 mph - N/A   Unknown
6:52 PM 82.9 °F 89.4 °F 73.9 °F 74% 29.96 in - Calm Calm - N/A   Unknown
7:52 PM 78.1 °F - 73.9 °F 87% 29.97 in - Calm Calm - N/A   Unknown
9:52 PM 75.0 °F - 73.9 °F 96% 29.99 in - Calm Calm - N/A   Unknown
10:52 PM 73.9 °F - 73.0 °F 97% 30.00 in - Calm Calm - N/A   Unknown
11:52 PM 73.9 °F - 72.0 °F 93% 29.99 in - Calm Calm - N/A   Unknown